IR4UCA-3 Weather Reports


time (UTC)temp
F
wind
direction
speed
knots
gust
knots
rain 1hr
in
rain 24hr
in
rain mn
in
humidity
%
barometer
mb
20260906110207 87 31 2.6 6.1 0.00 0.00 0.00 61 1021.0
20260906110020 87 56 2.6 5.2 0.00 0.00 0.00 62 1021.1
20260906105807 87 3 0.9 6.1 0.00 0.00 0.00 62 1021.0
20260906105607 87 117 0.0 6.1 0.00 0.00 0.00 62 1021.1
20260906105407 86 117 0.9 6.1 0.00 0.00 0.00 63 1021.1
20260906105207 86 117 1.7 6.1 0.00 0.00 0.00 63 1021.1
20260906105016 86 104 4.3 6.1 0.00 0.00 0.00 63 1021.1
20260906104807 86 109 3.5 10.4 0.00 0.00 0.00 64 1021.2
20260906104605 86 27 1.7 10.4 0.00 0.00 0.00 65 1021.2
20260906104404 86 118 1.7 10.4 0.00 0.00 0.00 65 1021.3
20260906104205 85 109 3.5 10.4 0.00 0.00 0.00 64 1021.3
20260906104012 86 79 7.0 10.4 0.00 0.00 0.00 64 1021.3
20260906103757 86 45 5.2 9.6 0.00 0.00 0.00 64 1021.3
20260906103558 86 37 3.5 6.1 0.00 0.00 0.00 65 1021.2
20260906103353 86 63 2.6 6.1 0.00 0.00 0.00 65 1021.2
20260906103152 86 76 3.5 6.1 0.00 0.00 0.00 66 1021.2
20260906102956 85 80 1.7 4.3 0.00 0.00 0.00 67 1021.3
20260906102804 85 83 1.7 8.7 0.00 0.00 0.00 67 1021.3
20260906102558 85 16 0.0 8.7 0.00 0.00 0.00 67 1021.3
20260906102358 85 42 1.7 8.7 0.00 0.00 0.00 67 1021.3
20260906102155 85 166 2.6 8.7 0.00 0.00 0.00 67 1021.4
20260906101952 85 79 5.2 8.7 0.00 0.00 0.00 66 1021.4
20260906101747 85 83 2.6 6.1 0.00 0.00 0.00 67 1021.3
20260906101547 85 99 1.7 6.1 0.00 0.00 0.00 67 1021.4
20260906101340 85 42 2.6 6.1 0.00 0.00 0.00 67 1021.3
20260906101142 85 71 3.5 6.1 0.00 0.00 0.00 67 1021.3
20260906100941 85 41 3.5 6.1 0.00 0.00 0.00 68 1021.4
20260906100738 85 41 1.7 3.5 0.00 0.00 0.00 69 1021.4
20260906100539 85 31 0.9 5.2 0.00 0.00 0.00 69 1021.4
20260906100338 85 154 0.0 5.2 0.00 0.00 0.00 69 1021.4
20260906100139 84 154 0.0 5.2 0.00 0.00 0.00 70 1021.4
20260906095937 84 130 2.6 6.1 0.00 0.00 0.00 70 1021.4
20260906095735 84 63 3.5 8.7 0.00 0.00 0.00 70 1021.4
20260906095537 84 85 1.7 8.7 0.00 0.00 0.00 70 1021.5
20260906095335 84 48 3.5 8.7 0.00 0.00 0.00 70 1021.5
20260906095137 84 69 4.3 8.7 0.00 0.00 0.00 69 1021.4
20260906094934 85 61 4.3 8.7 0.00 0.00 0.00 69 1021.4
20260906094733 85 7 1.7 7.8 0.00 0.00 0.00 70 1021.5
20260906094534 84 0 3.5 7.8 0.00 0.00 0.00 71 1021.6
20260906094330 84 0 0.9 7.8 0.00 0.00 0.00 71 1021.5
20260906094130 84 158 0.0 5.2 0.00 0.00 0.00 72 1021.6
20260906093929 84 109 1.7 5.2 0.00 0.00 0.00 72 1021.5
20260906093728 83 85 3.5 5.2 0.00 0.00 0.00 73 1021.6
20260906093529 83 76 1.7 4.3 0.00 0.00 0.00 74 1021.6
20260906093336 83 0 1.7 4.3 0.00 0.00 0.00 75 1021.6
20260906093134 83 202 0.0 5.2 0.00 0.00 0.00 75 1021.6
20260906092930 82 1 1.7 6.1 0.00 0.00 0.00 75 1021.6
20260906092729 82 31 2.6 6.1 0.00 0.00 0.00 75 1021.6
20260906092531 82 73 2.6 6.1 0.00 0.00 0.00 75 1021.5
20260906092325 82 58 3.5 7.8 0.00 0.00 0.00 76 1021.6
20260906092123 82 54 2.6 7.8 0.00 0.00 0.00 76 1021.6
20260906091920 82 44 1.7 7.8 0.00 0.00 0.00 76 1021.5
20260906091719 82 78 4.3 7.8 0.00 0.00 0.00 76 1021.5
20260906091535 82 71 4.3 7.8 0.00 0.00 0.00 75 1021.6
20260906091316 82 16 1.7 6.1 0.00 0.00 0.00 76 1021.5
20260906091110 82 86 1.7 4.3 0.00 0.00 0.00 76 1021.5
20260906090910 82 0 0.9 6.1 0.00 0.00 0.00 76 1021.5
20260906090710 82 65 1.7 6.1 0.00 0.00 0.00 76 1021.6
20260906090519 82 47 1.7 6.1 0.00 0.00 0.00 77 1021.6
20260906090309 82 93 0.9 6.1 0.00 0.00 0.00 77 1021.6
20260906090125 82 68 3.5 6.1 0.00 0.00 0.00 77 1021.5
20260906085907 82 65 3.5 5.2 0.00 0.00 0.00 76 1021.5
20260906085705 82 35 0.9 5.2 0.00 0.00 0.00 76 1021.5
20260906085517 82 302 0.9 7.8 0.00 0.00 0.00 76 1021.5
20260906085306 82 0 0.9 7.8 0.00 0.00 0.00 76 1021.5
20260906085104 81 62 2.6 7.8 0.00 0.00 0.00 76 1021.5
20260906084904 81 48 4.3 7.8 0.00 0.00 0.00 74 1021.5
20260906084703 82 52 5.2 7.8 0.00 0.00 0.00 74 1021.5
20260906084516 82 76 1.7 4.3 0.00 0.00 0.00 74 1021.5
20260906084304 81 303 1.7 4.3 0.00 0.00 0.00 74 1021.5
20260906084102 81 275 1.7 4.3 0.00 0.00 0.00 75 1021.4
20260906083851 81 264 1.7 4.3 0.00 0.00 0.00 74 1021.5
20260906083650 81 296 1.7 4.3 0.00 0.00 0.00 74 1021.5
20260906083452 81 295 1.7 3.5 0.00 0.00 0.00 74 1021.5
20260906083250 81 295 0.9 3.5 0.00 0.00 0.00 74 1021.5
20260906083049 81 282 1.7 3.5 0.00 0.00 0.00 74 1021.5
20260906082849 81 275 0.9 3.5 0.00 0.00 0.00 75 1021.5
20260906082656 80 306 1.7 3.5 0.00 0.00 0.00 75 1021.6
20260906082453 80 351 1.7 3.5 0.00 0.00 0.00 75 1021.5
20260906082255 80 71 0.9 4.3 0.00 0.00 0.00 75 1021.5
20260906082054 80 69 2.6 5.2 0.00 0.00 0.00 75 1021.6
20260906081851 80 0 1.7 5.2 0.00 0.00 0.00 75 1021.5
20260906081645 80 0 1.7 5.2 0.00 0.00 0.00 74 1021.6
20260906081447 80 6 2.6 5.2 0.00 0.00 0.00 74 1021.5
20260906081249 80 353 2.6 5.2 0.00 0.00 0.00 74 1021.5
20260906081048 79 0 0.9 5.2 0.00 0.00 0.00 75 1021.5
20260906080847 79 289 1.7 5.2 0.00 0.00 0.00 75 1021.5
20260906080644 79 3 1.7 5.2 0.00 0.00 0.00 75 1021.4
20260906080445 79 14 3.5 6.1 0.00 0.00 0.00 74 1021.5
20260906080247 79 0 3.5 6.1 0.00 0.00 0.00 75 1021.4
20260906080116 79 0 0.9 6.1 0.00 0.00 0.00 74 1021.3
20260906075844 79 358 3.5 6.1 0.00 0.00 0.00 74 1021.3
20260906075644 79 0 2.6 6.1 0.00 0.00 0.00 74 1021.3
20260906075448 79 24 1.7 4.3 0.00 0.00 0.00 73 1021.3
20260906075244 78 4 1.7 4.3 0.00 0.00 0.00 73 1021.3
20260906075048 78 4 2.6 4.3 0.00 0.00 0.00 73 1021.4
20260906074842 78 0 2.6 4.3 0.00 0.00 0.00 74 1021.3
20260906074650 78 52 2.6 3.5 0.00 0.00 0.00 73 1021.3
20260906074449 78 293 0.0 1.7 0.00 0.00 0.00 73 1021.3
20260906074248 77 293 0.0 1.7 0.00 0.00 0.00 73 1021.2
20260906074047 77 293 0.9 1.7 0.00 0.00 0.00 73 1021.2
20260906073841 77 293 0.9 2.6 0.00 0.00 0.00 72 1021.3
20260906073639 76 293 0.0 3.5 0.00 0.00 0.00 73 1021.2
20260906073439 76 293 0.0 3.5 0.00 0.00 0.00 73 1021.2
20260906073238 76 293 0.9 3.5 0.00 0.00 0.00 73 1021.2
20260906073045 76 293 1.7 3.5 0.00 0.00 0.00 73 1021.2
20260906072839 76 293 1.7 3.5 0.00 0.00 0.00 73 1021.2
20260906072637 76 202 0.9 3.5 0.00 0.00 0.00 74 1021.2
20260906072437 75 204 0.9 3.5 0.00 0.00 0.00 74 1021.2
20260906072234 75 200 1.7 4.3 0.00 0.00 0.00 74 1021.2
20260906072041 75 200 1.7 4.3 0.00 0.00 0.00 74 1021.2
20260906071833 75 203 1.7 5.2 0.00 0.00 0.00 74 1021.2
20260906071632 75 214 2.6 5.2 0.00 0.00 0.00 74 1021.2
20260906071432 74 210 3.5 5.2 0.00 0.00 0.00 75 1021.2
20260906071232 74 213 3.5 5.2 0.00 0.00 0.00 75 1021.2
20260906071034 74 217 3.5 5.2 0.00 0.00 0.00 75 1021.1
20260906070833 74 231 4.3 5.2 0.00 0.00 0.00 74 1021.2
20260906070629 74 231 3.5 7.8 0.00 0.00 0.00 74 1021.1
20260906070429 74 212 1.7 7.8 0.00 0.00 0.00 75 1021.1
20260906070229 74 185 2.6 7.8 0.00 0.00 0.00 74 1021.1
20260906070051 74 230 3.5 7.8 0.00 0.00 0.00 74 1021.1
20260906065830 74 192 4.3 7.8 0.00 0.00 0.00 74 1021.0
20260906065636 74 233 4.3 7.8 0.00 0.00 0.00 74 1021.0
20260906065434 74 203 3.5 7.8 0.00 0.00 0.00 74 1021.0
20260906065232 74 175 3.5 7.8 0.00 0.00 0.00 75 1021.0
20260906065038 74 241 4.3 7.8 0.00 0.00 0.00 75 1021.0
20260906064827 74 238 3.5 7.8 0.00 0.00 0.00 75 1021.0
20260906064625 74 210 4.3 7.8 0.00 0.00 0.00 75 1021.0
20260906064425 74 227 3.5 5.2 0.00 0.00 0.00 75 1020.9
20260906064222 74 217 2.6 5.2 0.00 0.00 0.00 75 1021.0
20260906064038 74 197 3.5 5.2 0.00 0.00 0.00 75 1020.9
20260906063820 74 223 2.6 5.2 0.00 0.00 0.00 75 1020.9
20260906063619 73 214 4.3 5.2 0.00 0.00 0.00 74 1020.9
20260906063418 74 228 3.5 5.2 0.00 0.00 0.00 74 1020.9
20260906063218 74 234 2.6 5.2 0.00 0.00 0.00 74 1020.9
20260906063029 74 214 2.6 5.2 0.00 0.00 0.00 74 1020.8
20260906062817 74 228 2.6 5.2 0.00 0.00 0.00 74 1020.9
20260906062617 74 182 2.6 5.2 0.00 0.00 0.00 74 1020.8
20260906062416 74 217 2.6 5.2 0.00 0.00 0.00 74 1020.7
20260906062216 74 217 3.5 5.2 0.00 0.00 0.00 73 1020.7
20260906062024 74 214 2.6 4.3 0.00 0.00 0.00 73 1020.7
20260906061812 74 202 2.6 5.2 0.00 0.00 0.00 73 1020.7
20260906061613 74 228 2.6 5.2 0.00 0.00 0.00 73 1020.7
20260906061413 74 203 2.6 5.2 0.00 0.00 0.00 73 1020.7
20260906061212 74 217 2.6 5.2 0.00 0.00 0.00 74 1020.8
20260906061029 74 183 2.6 5.2 0.00 0.00 0.00 73 1020.6
20260906060835 74 203 2.6 5.2 0.00 0.00 0.00 73 1020.7
20260906060610 73 221 2.6 5.2 0.00 0.00 0.00 74 1020.6
20260906060409 73 197 3.5 5.2 0.00 0.00 0.00 74 1020.6
20260906060217 73 202 1.7 3.5 0.00 0.00 0.00 74 1020.6
20260906060041 73 202 1.7 3.5 0.00 0.00 0.00 74 1020.6
20260906055812 73 202 1.7 3.5 0.00 0.00 0.00 74 1020.5
20260906055610 73 202 1.7 3.5 0.00 0.00 0.00 74 1020.5
20260906055409 73 202 1.7 3.5 0.00 0.00 0.00 74 1020.5
20260906055209 73 202 1.7 3.5 0.00 0.00 0.00 74 1020.5
20260906055019 73 202 1.7 3.5 0.00 0.00 0.00 74 1020.5
20260906054806 73 202 2.6 3.5 0.00 0.00 0.00 74 1020.5
20260906054603 73 202 1.7 3.5 0.00 0.00 0.00 74 1020.5
20260906054403 73 202 1.7 3.5 0.00 0.00 0.00 74 1020.5
20260906054203 73 202 1.7 3.5 0.00 0.00 0.00 74 1020.4
20260906054012 73 202 1.7 4.3 0.00 0.00 0.00 74 1020.4
20260906053804 73 202 1.7 4.3 0.00 0.00 0.00 74 1020.5
20260906053600 73 202 1.7 4.3 0.00 0.00 0.00 74 1020.4
20260906053401 73 202 1.7 4.3 0.00 0.00 0.00 74 1020.3
20260906053159 73 200 1.7 4.3 0.00 0.00 0.00 75 1020.3
20260906052959 73 219 1.7 4.3 0.00 0.00 0.00 75 1020.3
20260906052759 73 186 1.7 4.3 0.00 0.00 0.00 75 1020.3
20260906052558 73 235 1.7 5.2 0.00 0.00 0.00 76 1020.4
20260906052358 73 219 1.7 5.2 0.00 0.00 0.00 76 1020.2
20260906052157 73 176 1.7 5.2 0.00 0.00 0.00 76 1020.3
20260906051957 72 219 1.7 5.2 0.00 0.00 0.00 76 1020.3
20260906051756 72 199 2.6 5.2 0.00 0.00 0.00 77 1020.3
20260906051556 72 210 1.7 4.3 0.00 0.00 0.00 77 1020.2
20260906051356 72 207 1.7 4.3 0.00 0.00 0.00 77 1020.2
20260906051154 72 217 1.7 4.3 0.00 0.00 0.00 77 1020.2
20260906051000 72 190 1.7 5.2 0.00 0.00 0.00 77 1020.2
20260906050757 72 185 1.7 7.8 0.00 0.00 0.00 77 1020.2
20260906050559 72 189 1.7 7.8 0.00 0.00 0.00 77 1020.1
20260906050359 72 231 2.6 7.8 0.00 0.00 0.00 76 1020.2
20260906050153 72 183 3.5 7.8 0.00 0.00 0.00 76 1020.2
20260906045954 72 221 2.6 7.8 0.00 0.00 0.00 76 1020.2
20260906045751 73 190 4.3 7.8 0.00 0.00 0.00 76 1020.2
20260906045551 73 199 3.5 7.8 0.00 0.00 0.00 75 1020.1
20260906045349 73 185 3.5 7.8 0.00 0.00 0.00 75 1020.1
20260906045148 73 193 4.3 7.8 0.00 0.00 0.00 74 1020.1
20260906044950 73 204 4.3 10.4 0.00 0.00 0.00 74 1020.1
20260906044747 73 213 3.5 10.4 0.00 0.00 0.00 73 1020.0
20260906044547 73 233 3.5 10.4 0.00 0.00 0.00 73 1020.0
20260906044347 73 173 3.5 10.4 0.00 0.00 0.00 73 1020.0
20260906044147 73 186 4.3 10.4 0.00 0.00 0.00 73 1020.0
20260906043950 74 219 3.5 7.8 0.00 0.00 0.00 73 1020.0
20260906043745 73 203 3.5 7.8 0.00 0.00 0.00 73 1020.0
20260906043543 74 212 2.6 7.8 0.00 0.00 0.00 74 1019.9
20260906043342 73 202 3.5 7.8 0.00 0.00 0.00 74 1019.9
20260906043141 73 196 3.5 7.8 0.00 0.00 0.00 74 1019.9
20260906042941 73 247 2.6 5.2 0.00 0.00 0.00 75 1019.9
20260906042741 73 216 3.5 5.2 0.00 0.00 0.00 75 1019.8
20260906042542 73 216 1.7 5.2 0.00 0.00 0.00 75 1019.8
20260906042339 73 183 2.6 5.2 0.00 0.00 0.00 76 1019.7
20260906042148 73 147 2.6 5.2 0.00 0.00 0.00 76 1019.8
20260906041943 73 202 2.6 6.1 0.00 0.00 0.00 76 1019.8
20260906041745 73 220 2.6 6.1 0.00 0.00 0.00 76 1019.8
20260906041542 73 173 2.6 6.1 0.00 0.00 0.00 77 1019.7
20260906041339 73 189 3.5 6.1 0.00 0.00 0.00 77 1019.7
20260906041138 72 203 3.5 6.1 0.00 0.00 0.00 77 1019.7
20260906040936 72 223 2.6 5.2 0.00 0.00 0.00 77 1019.7
20260906040737 72 193 2.6 5.2 0.00 0.00 0.00 77 1019.7
20260906040535 72 164 1.7 4.3 0.00 0.00 0.00 77 1019.6
20260906040332 72 178 1.7 4.3 0.00 0.00 0.00 77 1019.7
20260906040133 72 209 1.7 4.3 0.00 0.00 0.00 77 1019.6
20260906035929 72 182 1.7 4.3 0.00 0.00 0.00 77 1019.6
20260906035732 72 214 2.6 4.3 0.00 0.00 0.00 77 1019.5
20260906035531 72 196 2.6 4.3 0.00 0.00 0.00 77 1019.6
20260906035332 72 202 2.6 4.3 0.00 0.00 0.00 77 1019.6
20260906035130 72 221 2.6 4.3 0.00 0.00 0.00 77 1019.6
20260906034929 72 223 1.7 4.3 0.00 0.00 0.00 77 1019.5
20260906034732 72 224 2.6 4.3 0.00 0.00 0.00 77 1019.6
20260906034529 72 199 2.6 5.2 0.00 0.00 0.00 77 1019.5
20260906034329 72 190 2.6 5.2 0.00 0.00 0.00 76 1019.4
20260906034129 72 231 2.6 6.1 0.00 0.00 0.00 76 1019.4
20260906033929 73 195 2.6 6.1 0.00 0.00 0.00 76 1019.4
20260906033731 73 192 2.6 6.1 0.00 0.00 0.00 76 1019.4
20260906033528 73 188 2.6 6.1 0.00 0.00 0.00 76 1019.4
20260906033329 73 214 2.6 6.1 0.00 0.00 0.00 75 1019.4
20260906033134 73 183 2.6 4.3 0.00 0.00 0.00 75 1019.3
20260906032931 73 224 2.6 4.3 0.00 0.00 0.00 75 1019.3
20260906032732 74 204 0.9 4.3 0.00 0.00 0.00 75 1019.4
20260906032519 74 164 2.6 4.3 0.00 0.00 0.00 75 1019.3
20260906032322 74 193 1.7 3.5 0.00 0.00 0.00 74 1019.3
20260906032120 74 193 1.7 3.5 0.00 0.00 0.00 74 1019.3
20260906031917 74 193 1.7 3.5 0.00 0.00 0.00 74 1019.2
20260906031718 74 193 0.9 1.7 0.00 0.00 0.00 74 1019.2
20260906031525 74 193 0.0 1.7 0.00 0.00 0.00 74 1019.3
20260906031315 74 193 0.0 1.7 0.00 0.00 0.00 74 1019.3
20260906031113 74 193 0.0 1.7 0.00 0.00 0.00 74 1019.3
20260906030913 74 193 0.0 1.7 0.00 0.00 0.00 74 1019.4
20260906030710 74 193 0.0 1.7 0.00 0.00 0.00 74 1019.3
20260906030517 74 193 0.0 1.7 0.00 0.00 0.00 74 1019.3
20260906030310 74 193 0.9 1.7 0.00 0.00 0.00 74 1019.3
20260906030106 74 193 0.0 0.9 0.00 0.00 0.00 74 1019.2
20260906025906 74 193 0.0 0.0 0.00 0.00 0.00 74 1019.2
20260906025706 74 193 0.0 0.0 0.00 0.00 0.00 73 1019.2
20260906025515 74 193 0.0 0.9 0.00 0.00 0.00 73 1019.3
20260906025306 74 193 0.0 0.9 0.00 0.00 0.00 73 1019.2
20260906025105 74 193 0.0 0.9 0.00 0.00 0.00 73 1019.3
20260906024903 74 193 0.0 0.9 0.00 0.00 0.00 73 1019.3
20260906024703 74 193 0.0 1.7 0.00 0.00 0.00 73 1019.2
20260906024503 75 193 0.0 1.7 0.00 0.00 0.00 73 1019.2
20260906024306 75 193 0.0 1.7 0.00 0.00 0.00 73 1019.2
20260906024107 75 193 0.9 1.7 0.00 0.00 0.00 73 1019.2
20260906023906 75 193 0.9 1.7 0.00 0.00 0.00 72 1019.2
20260906023704 75 193 0.0 2.6 0.00 0.00 0.00 72 1019.2
20260906023514 75 193 0.9 4.3 0.00 0.00 0.00 72 1019.2
20260906023308 75 193 0.9 4.3 0.00 0.00 0.00 72 1019.0
20260906023105 75 193 0.9 5.2 0.00 0.00 0.00 72 1019.1
20260906022903 75 193 0.9 5.2 0.00 0.00 0.00 72 1019.1
20260906022700 75 213 1.7 5.2 0.00 0.00 0.00 72 1019.1
20260906022458 75 180 1.7 5.2 0.00 0.00 0.00 72 1019.0
20260906022300 76 199 3.5 7.8 0.00 0.00 0.00 71 1018.9
20260906022059 76 234 4.3 7.8 0.00 0.00 0.00 71 1018.9
20260906021858 76 228 3.5 7.8 0.00 0.00 0.00 70 1018.9
20260906021656 76 227 1.7 7.8 0.00 0.00 0.00 70 1018.8
20260906021456 76 220 4.3 7.8 0.00 0.00 0.00 70 1018.8
20260906021256 76 223 2.6 7.8 0.00 0.00 0.00 70 1018.8
20260906021056 76 200 2.6 6.1 0.00 0.00 0.00 70 1018.7
20260906020856 76 158 3.5 6.1 0.00 0.00 0.00 70 1018.7
20260906020654 76 183 2.6 6.1 0.00 0.00 0.00 70 1018.7
20260906020454 76 224 1.7 6.1 0.00 0.00 0.00 70 1018.8
20260906020254 76 212 1.7 6.1 0.00 0.00 0.00 70 1018.7
20260906020105 76 196 1.7 6.1 0.00 0.00 0.00 70 1018.7
20260906015851 76 224 3.5 6.1 0.00 0.00 0.00 70 1018.6
20260906015650 76 226 3.5 7.8 0.00 0.00 0.00 70 1018.7
20260906015449 76 193 1.7 7.8 0.00 0.00 0.00 70 1018.6
20260906015249 76 180 1.7 7.8 0.00 0.00 0.00 70 1018.6
20260906015048 76 202 1.7 7.8 0.00 0.00 0.00 70 1018.6
20260906014849 76 210 3.5 7.8 0.00 0.00 0.00 70 1018.6
20260906014649 76 244 4.3 10.4 0.00 0.00 0.00 70 1018.6
20260906014448 76 175 3.5 10.4 0.00 0.00 0.00 70 1018.5
20260906014246 76 199 2.6 10.4 0.00 0.00 0.00 70 1018.5
20260906014058 76 176 2.6 10.4 0.00 0.00 0.00 70 1018.5
20260906013855 76 188 4.3 10.4 0.00 0.00 0.00 70 1018.5
20260906013655 76 247 3.5 6.1 0.00 0.00 0.00 70 1018.4
20260906013450 76 223 2.6 7.8 0.00 0.00 0.00 70 1018.4
20260906013250 76 227 2.6 9.6 0.00 0.00 0.00 70 1018.4
20260906013049 76 214 3.5 9.6 0.00 0.00 0.00 70 1018.4
20260906012846 76 226 3.5 9.6 0.00 0.00 0.00 70 1018.5
20260906012649 76 192 3.5 9.6 0.00 0.00 0.00 70 1018.5
20260906012434 76 223 4.3 9.6 0.00 0.00 0.00 70 1018.4
20260906012235 76 216 5.2 9.6 0.00 0.00 0.00 69 1018.5
20260906012035 77 244 5.2 9.6 0.00 0.00 0.00 69 1018.4
20260906011833 77 152 5.2 8.7 0.00 0.00 0.00 69 1018.4
20260906011633 77 202 4.3 8.7 0.00 0.00 0.00 69 1018.5
20260906011433 77 199 4.3 8.7 0.00 0.00 0.00 69 1018.4
20260906011234 77 180 3.5 7.8 0.00 0.00 0.00 69 1018.5
20260906011034 77 210 3.5 7.8 0.00 0.00 0.00 69 1018.5
20260906010831 77 212 3.5 7.8 0.00 0.00 0.00 69 1018.5
20260906010631 77 212 1.7 6.1 0.00 0.00 0.00 69 1018.4
20260906010430 77 213 3.5 6.1 0.00 0.00 0.00 69 1018.4
20260906010229 77 210 1.7 6.1 0.00 0.00 0.00 69 1018.5
20260906010046 77 185 1.7 6.1 0.00 0.00 0.00 69 1018.5
20260906005831 77 223 4.3 6.1 0.00 0.00 0.00 69 1018.4
20260906005629 77 178 1.7 6.1 0.00 0.00 0.00 69 1018.4
20260906005429 77 192 1.7 6.1 0.00 0.00 0.00 69 1018.5
20260906005240 77 206 2.6 6.1 0.00 0.00 0.00 68 1018.4
20260906005033 77 200 1.7 4.3 0.00 0.00 0.00 68 1018.4
20260906004830 77 197 2.6 4.3 0.00 0.00 0.00 68 1018.4
20260906004628 77 213 1.7 4.3 0.00 0.00 0.00 68 1018.4
20260906004426 78 190 1.7 4.3 0.00 0.00 0.00 68 1018.4
20260906004228 78 195 0.9 4.3 0.00 0.00 0.00 68 1018.4
20260906004029 78 162 1.7 4.3 0.00 0.00 0.00 68 1018.4
20260906003825 78 213 1.7 3.5 0.00 0.00 0.00 67 1018.3
20260906003625 78 202 0.9 3.5 0.00 0.00 0.00 67 1018.4
20260906003424 78 231 0.9 2.6 0.00 0.00 0.00 67 1018.3
20260906003226 78 231 0.0 1.7 0.00 0.00 0.00 67 1018.3
20260906003023 78 231 0.0 0.9 0.00 0.00 0.00 66 1018.4
20260906002817 78 231 0.0 0.0 0.00 0.00 0.00 66 1018.4
20260906002617 78 231 0.0 0.0 0.00 0.00 0.00 65 1018.3
20260906002420 78 231 0.0 0.0 0.00 0.00 0.00 65 1018.3
20260906002220 78 231 0.0 0.0 0.00 0.00 0.00 65 1018.3
20260906002019 78 231 0.0 0.0 0.00 0.00 0.00 65 1018.3
20260906001812 78 231 0.0 0.0 0.00 0.00 0.00 65 1018.3
20260906001612 78 231 0.0 0.9 0.00 0.00 0.00 65 1018.3
20260906001414 79 231 0.0 1.7 0.00 0.00 0.00 66 1018.3
20260906001216 79 231 0.0 1.7 0.00 0.00 0.00 66 1018.2
20260906001016 79 231 0.0 1.7 0.00 0.00 0.00 66 1018.2
20260906000814 79 231 0.0 1.7 0.00 0.00 0.00 66 1018.3
20260906000612 79 231 0.9 1.7 0.00 0.00 0.00 66 1018.3
20260906000411 79 231 0.0 1.7 0.00 0.00 0.00 66 1018.3
20260906000214 79 231 0.0 1.7 0.00 0.00 0.00 66 1018.3
20260906000040 79 231 0.0 1.7 0.00 0.00 0.00 66 1018.3
20260905235813 79 231 0.0 2.6 0.00 0.00 0.00 66 1018.3
20260905235614 79 231 0.9 2.6 0.00 0.00 0.00 66 1018.3
20260905235409 79 231 0.0 2.6 0.00 0.00 0.00 65 1018.2
20260905235213 79 231 0.9 4.3 0.00 0.00 0.00 65 1018.3
20260905235018 79 231 0.9 5.2 0.00 0.00 0.00 65 1018.2
20260905234804 79 231 0.9 5.2 0.00 0.00 0.00 65 1018.2
20260905234603 79 231 0.9 7.8 0.00 0.00 0.00 65 1018.2
20260905234407 79 195 1.7 7.8 0.00 0.00 0.00 65 1018.1
20260905234209 79 230 2.6 7.8 0.00 0.00 0.00 65 1018.1
20260905234016 79 226 1.7 7.8 0.00 0.00 0.00 65 1018.1
20260905233801 79 169 1.7 7.8 0.00 0.00 0.00 65 1018.1
20260905233604 79 195 1.7 7.8 0.00 0.00 0.00 65 1018.0
20260905233409 79 212 2.6 7.8 0.00 0.00 0.00 65 1018.1
20260905233205 79 168 3.5 7.8 0.00 0.00 0.00 65 1018.0
20260905233017 79 244 3.5 6.1 0.00 0.00 0.00 65 1018.0
20260905232802 79 250 3.5 7.8 0.00 0.00 0.00 65 1018.1
20260905232603 79 220 3.5 8.7 0.00 0.00 0.00 65 1018.0
20260905232403 79 220 4.3 8.7 0.00 0.00 0.00 64 1018.0
20260905232203 79 237 3.5 8.7 0.00 0.00 0.00 64 1017.9
20260905232009 80 241 4.3 8.7 0.00 0.00 0.00 64 1017.9
20260905231804 80 219 4.3 8.7 0.00 0.00 0.00 64 1018.0
20260905231605 80 272 1.7 5.2 0.00 0.00 0.00 63 1018.0
20260905231408 80 238 0.9 5.2 0.00 0.00 0.00 63 1018.0
20260905231205 80 245 0.0 5.2 0.00 0.00 0.00 63 1017.9
20260905231002 80 190 3.5 5.2 0.00 0.00 0.00 63 1017.9
20260905230759 80 224 2.6 4.3 0.00 0.00 0.00 62 1017.9
20260905230556 80 179 0.9 3.5 0.00 0.00 0.00 62 1018.0
20260905230357 80 169 1.7 3.5 0.00 0.00 0.00 62 1018.0
20260905230156 80 186 0.9 5.2 0.00 0.00 0.00 62 1017.9
20260905225958 80 186 0.0 5.2 0.00 0.00 0.00 61 1017.9
20260905225756 80 186 0.0 5.2 0.00 0.00 0.00 62 1017.9
20260905225556 80 186 0.0 5.2 0.00 0.00 0.00 62 1017.8
20260905225354 80 186 1.7 5.2 0.00 0.00 0.00 62 1017.8
20260905225155 80 165 0.9 5.2 0.00 0.00 0.00 62 1017.9
20260905224954 80 120 1.7 5.2 0.00 0.00 0.00 61 1017.9
20260905224753 80 144 0.0 2.6 0.00 0.00 0.00 61 1017.9
20260905224555 80 144 0.0 2.6 0.00 0.00 0.00 61 1017.8
20260905224352 80 144 0.0 0.9 0.00 0.00 0.00 61 1017.8
20260905224152 80 144 0.0 2.6 0.00 0.00 0.00 61 1017.7
20260905223950 80 144 0.0 5.2 0.00 0.00 0.00 61 1017.8
20260905223749 81 144 0.0 5.2 0.00 0.00 0.00 61 1017.8
20260905223554 81 144 0.0 5.2 0.00 0.00 0.00 61 1017.8
20260905223347 81 144 0.9 5.2 0.00 0.00 0.00 61 1017.8
20260905223148 81 213 2.6 5.2 0.00 0.00 0.00 61 1017.7
20260905222948 81 220 2.6 5.2 0.00 0.00 0.00 60 1017.7
20260905222747 81 183 1.7 5.2 0.00 0.00 0.00 60 1017.7
20260905222549 81 227 2.6 5.2 0.00 0.00 0.00 60 1017.6
20260905222346 81 169 0.9 3.5 0.00 0.00 0.00 60 1017.7
20260905222155 82 248 0.9 3.5 0.00 0.00 0.00 59 1017.6
20260905221955 82 248 0.9 3.5 0.00 0.00 0.00 59 1017.6
20260905221749 82 248 0.9 3.5 0.00 0.00 0.00 59 1017.6
20260905221548 82 266 0.9 2.6 0.00 0.00 0.00 59 1017.6
20260905221345 82 336 0.0 1.7 0.00 0.00 0.00 58 1017.5
20260905221148 82 336 0.0 1.7 0.00 0.00 0.00 58 1017.5
20260905220948 82 336 0.0 0.9 0.00 0.00 0.00 58 1017.5
20260905220745 82 336 0.0 0.9 0.00 0.00 0.00 57 1017.4
20260905220544 83 336 0.0 0.9 0.00 0.00 0.00 57 1017.4
20260905220344 83 336 0.0 1.7 0.00 0.00 0.00 57 1017.4
20260905220144 83 336 0.0 1.7 0.00 0.00 0.00 57 1017.4
20260905215946 83 336 0.0 1.7 0.00 0.00 0.00 57 1017.4
20260905215746 83 336 0.0 3.5 0.00 0.00 0.00 57 1017.3
20260905215546 83 336 0.9 3.5 0.00 0.00 0.00 57 1017.3
20260905215348 83 0 0.0 3.5 0.00 0.00 0.00 57 1017.3
20260905215148 83 0 0.0 3.5 0.00 0.00 0.00 57 1017.3
20260905214947 83 0 2.6 5.2 0.00 0.00 0.00 57 1017.3
20260905214746 83 0 1.7 7.8 0.00 0.00 0.00 57 1017.3
20260905214546 83 4 0.9 11.3 0.00 0.00 0.00 57 1017.3
20260905214345 83 7 1.7 11.3 0.00 0.00 0.00 57 1017.2
20260905214154 83 18 1.7 11.3 0.00 0.00 0.00 57 1017.2
20260905213951 83 230 4.3 11.3 0.00 0.00 0.00 56 1017.1
20260905213745 83 185 5.2 11.3 0.00 0.00 0.00 56 1016.9
20260905213547 83 204 5.2 9.6 0.00 0.00 0.00 56 1016.9
20260905213347 83 175 6.1 10.4 0.00 0.00 0.00 55 1016.8
20260905213146 84 206 4.3 12.2 0.00 0.00 0.00 55 1016.9
20260905212947 84 202 5.2 12.2 0.00 0.00 0.00 55 1016.8
20260905212746 84 238 5.2 13.9 0.00 0.00 0.00 55 1016.9
20260905212544 84 210 7.0 13.9 0.00 0.00 0.00 54 1016.8
20260905212348 84 179 7.0 13.9 0.00 0.00 0.00 54 1016.8
20260905212144 84 237 4.3 13.9 0.00 0.00 0.00 54 1016.7
20260905211945 84 179 6.1 13.9 0.00 0.00 0.00 54 1016.8
20260905211745 84 207 6.1 13.0 0.00 0.00 0.00 54 1016.7
20260905211547 84 214 6.1 13.0 0.00 0.00 0.00 54 1016.8
20260905211345 84 180 6.1 13.0 0.00 0.00 0.00 54 1016.7
20260905211145 84 175 6.1 15.6 0.00 0.00 0.00 54 1016.8
20260905210946 84 204 6.1 15.6 0.00 0.00 0.00 54 1016.7
20260905210745 84 185 7.0 15.6 0.00 0.00 0.00 54 1016.7
20260905210544 84 169 5.2 15.6 0.00 0.00 0.00 54 1016.7
20260905210352 84 144 8.7 15.6 0.00 0.00 0.00 54 1016.6
20260905210150 84 188 6.1 12.2 0.00 0.00 0.00 54 1016.7
20260905205949 84 221 5.2 12.2 0.00 0.00 0.00 54 1016.6
20260905205747 84 175 5.2 12.2 0.00 0.00 0.00 54 1016.7
20260905205549 84 182 6.1 12.2 0.00 0.00 0.00 54 1016.6
20260905205347 84 228 6.1 12.2 0.00 0.00 0.00 54 1016.6
20260905205145 84 216 7.0 12.2 0.00 0.00 0.00 54 1016.6
20260905204945 84 131 7.0 12.2 0.00 0.00 0.00 54 1016.6
20260905204744 84 152 5.2 12.2 0.00 0.00 0.00 54 1016.6
20260905204546 84 193 6.1 12.2 0.00 0.00 0.00 53 1016.7
20260905204346 84 214 5.2 12.2 0.00 0.00 0.00 53 1016.6
20260905204148 84 190 5.2 12.2 0.00 0.00 0.00 53 1016.7
20260905203945 84 159 6.1 12.2 0.00 0.00 0.00 53 1016.6
20260905203745 85 166 6.1 11.3 0.00 0.00 0.00 53 1016.6
20260905203545 85 195 5.2 11.3 0.00 0.00 0.00 53 1016.6
20260905203345 85 220 6.1 12.2 0.00 0.00 0.00 52 1016.6
20260905203146 85 200 7.0 12.2 0.00 0.00 0.00 52 1016.6
20260905202945 85 219 6.1 12.2 0.00 0.00 0.00 52 1016.5
20260905202747 85 188 6.1 12.2 0.00 0.00 0.00 52 1016.5
20260905202546 85 217 7.0 12.2 0.00 0.00 0.00 52 1016.5
20260905202346 85 212 6.1 11.3 0.00 0.00 0.00 52 1016.4
20260905202153 85 220 6.1 11.3 0.00 0.00 0.00 52 1016.5
20260905201951 85 169 6.1 11.3 0.00 0.00 0.00 52 1016.6
20260905201807 86 210 5.2 12.2 0.00 0.00 0.00 51 1016.5
20260905201547 86 217 7.0 15.6 0.00 0.00 0.00 51 1016.5
20260905201345 86 179 5.2 15.6 0.00 0.00 0.00 51 1016.5
20260905201145 86 212 5.2 15.6 0.00 0.00 0.00 51 1016.5
20260905200951 86 178 7.0 15.6 0.00 0.00 0.00 51 1016.5
20260905200744 86 213 5.2 15.6 0.00 0.00 0.00 51 1016.4
20260905200545 86 189 4.3 13.0 0.00 0.00 0.00 51 1016.6
20260905200345 86 235 5.2 13.0 0.00 0.00 0.00 51 1016.5
20260905200144 86 155 6.1 13.0 0.00 0.00 0.00 51 1016.6
20260905195947 86 189 6.1 13.0 0.00 0.00 0.00 51 1016.5
20260905195745 86 281 5.2 11.3 0.00 0.00 0.00 51 1016.6
20260905195545 86 272 4.3 10.4 0.00 0.00 0.00 51 1016.6
20260905195344 86 176 3.5 10.4 0.00 0.00 0.00 51 1016.5
20260905195148 86 175 5.2 10.4 0.00 0.00 0.00 51 1016.4
20260905194946 87 252 5.2 10.4 0.00 0.00 0.00 51 1016.6
20260905194744 87 157 5.2 10.4 0.00 0.00 0.00 50 1016.4
20260905194542 87 233 4.3 10.4 0.00 0.00 0.00 50 1016.5
20260905194345 87 204 3.5 11.3 0.00 0.00 0.00 50 1016.4
20260905194143 87 176 4.3 11.3 0.00 0.00 0.00 50 1016.4
20260905193942 87 200 3.5 11.3 0.00 0.00 0.00 50 1016.4
20260905193746 87 148 4.3 11.3 0.00 0.00 0.00 50 1016.4
20260905193543 87 145 4.3 11.3 0.00 0.00 0.00 50 1016.3
20260905193341 87 125 5.2 11.3 0.00 0.00 0.00 50 1016.3
20260905193138 87 164 2.6 11.3 0.00 0.00 0.00 50 1016.3
20260905192940 87 210 4.3 11.3 0.00 0.00 0.00 50 1016.4
20260905192736 87 176 4.3 11.3 0.00 0.00 0.00 50 1016.3
20260905192537 87 141 4.3 12.2 0.00 0.00 0.00 49 1016.3
20260905192334 87 185 2.6 12.2 0.00 0.00 0.00 49 1016.2
20260905192133 87 135 4.3 12.2 0.00 0.00 0.00 49 1016.3
20260905191934 87 202 3.5 12.2 0.00 0.00 0.00 49 1016.2
20260905191732 87 238 5.2 12.2 0.00 0.00 0.00 49 1016.2
20260905191532 87 209 4.3 9.6 0.00 0.00 0.00 49 1016.2
20260905191332 87 207 4.3 8.7 0.00 0.00 0.00 49 1016.1
20260905191132 87 220 4.3 9.6 0.00 0.00 0.00 49 1016.2
20260905190931 87 206 4.3 12.2 0.00 0.00 0.00 49 1016.1
20260905190731 87 192 5.2 12.2 0.00 0.00 0.00 49 1016.1
20260905190530 87 121 4.3 12.2 0.00 0.00 0.00 49 1016.0
20260905190329 87 157 4.3 12.2 0.00 0.00 0.00 49 1016.1
20260905190129 88 219 5.2 12.2 0.00 0.00 0.00 49 1016.0
20260905185926 88 164 4.3 11.3 0.00 0.00 0.00 49 1016.1
20260905185725 88 206 5.2 11.3 0.00 0.00 0.00 49 1016.0
20260905185527 88 216 3.5 8.7 0.00 0.00 0.00 49 1016.0
20260905185325 88 196 2.6 10.4 0.00 0.00 0.00 49 1015.9
20260905185125 88 220 2.6 10.4 0.00 0.00 0.00 48 1016.0
20260905184923 88 171 3.5 10.4 0.00 0.00 0.00 48 1015.9
20260905184725 88 241 3.5 10.4 0.00 0.00 0.00 48 1015.8
20260905184530 88 87 5.2 10.4 0.00 0.00 0.00 48 1015.8
20260905184327 88 183 5.2 9.6 0.00 0.00 0.00 48 1015.8
20260905184125 89 217 3.5 9.6 0.00 0.00 0.00 48 1015.7
20260905183926 89 189 3.5 9.6 0.00 0.00 0.00 48 1015.8
20260905183722 89 227 3.5 9.6 0.00 0.00 0.00 48 1015.7
20260905183531 89 227 4.3 8.7 0.00 0.00 0.00 48 1015.7
20260905183320 89 206 3.5 8.7 0.00 0.00 0.00 48 1015.7
20260905183121 89 162 1.7 8.7 0.00 0.00 0.00 48 1015.7
20260905182920 89 180 2.6 8.7 0.00 0.00 0.00 48 1015.6
20260905182719 89 145 2.6 8.7 0.00 0.00 0.00 48 1015.5
20260905182522 89 157 3.5 8.7 0.00 0.00 0.00 48 1015.5
20260905182316 89 269 4.3 8.7 0.00 0.00 0.00 48 1015.5
20260905182115 89 233 4.3 7.8 0.00 0.00 0.00 48 1015.5
20260905181917 89 212 3.5 7.8 0.00 0.00 0.00 48 1015.5
20260905181714 89 152 3.5 7.8 0.00 0.00 0.00 48 1015.5
20260905181517 89 145 2.6 7.8 0.00 0.00 0.00 48 1015.5
20260905181313 89 171 0.9 9.6 0.00 0.00 0.00 48 1015.4
20260905181113 90 100 2.6 9.6 0.00 0.00 0.00 48 1015.3
20260905180913 90 172 1.7 9.6 0.00 0.00 0.00 48 1015.3
20260905180714 90 182 2.6 9.6 0.00 0.00 0.00 48 1015.2
20260905180520 90 193 2.6 9.6 0.00 0.00 0.00 48 1015.3
20260905180313 90 168 1.7 7.8 0.00 0.00 0.00 48 1015.3
20260905180113 90 178 0.9 4.3 0.00 0.00 0.00 48 1015.3
20260905175911 90 138 0.9 4.3 0.00 0.00 0.00 47 1015.3
20260905175717 90 204 1.7 7.8 0.00 0.00 0.00 47 1015.3
20260905175524 90 193 1.7 11.3 0.00 0.00 0.00 47 1015.4
20260905175316 90 210 0.0 13.0 0.00 0.00 0.00 47 1015.3
20260905175114 90 80 2.6 13.0 0.00 0.00 0.00 47 1015.3
20260905174910 90 200 4.3 13.0 0.00 0.00 0.00 47 1015.3
20260905174707 91 197 5.2 13.0 0.00 0.00 0.00 47 1015.3
20260905174513 91 193 5.2 13.0 0.00 0.00 0.00 47 1015.2
20260905174303 91 237 4.3 12.2 0.00 0.00 0.00 47 1015.2
20260905174105 91 162 3.5 12.2 0.00 0.00 0.00 47 1015.2
20260905173910 91 203 4.3 12.2 0.00 0.00 0.00 47 1015.2
20260905173704 91 148 6.1 12.2 0.00 0.00 0.00 47 1015.1
20260905173506 91 226 7.0 11.3 0.00 0.00 0.00 47 1015.1
20260905173304 92 238 5.2 11.3 0.00 0.00 0.00 47 1015.1
20260905173105 92 173 4.3 7.8 0.00 0.00 0.00 47 1015.1
20260905172906 92 255 2.6 7.8 0.00 0.00 0.00 47 1015.0
20260905172703 92 175 2.6 7.8 0.00 0.00 0.00 47 1015.0
20260905172501 92 154 1.7 6.1 0.00 0.00 0.00 47 1015.1
20260905172308 92 227 3.5 6.1 0.00 0.00 0.00 47 1015.0
20260905172104 92 183 3.5 7.8 0.00 0.00 0.00 47 1015.0
20260905171905 92 161 0.9 7.8 0.00 0.00 0.00 47 1015.1
20260905171704 92 209 1.7 7.8 0.00 0.00 0.00 47 1015.1
20260905171515 92 206 1.7 7.8 0.00 0.00 0.00 47 1015.0
20260905171306 93 155 3.5 7.8 0.00 0.00 0.00 46 1015.1
20260905171104 93 94 1.7 7.8 0.00 0.00 0.00 46 1015.1
20260905170922 93 182 2.6 7.8 0.00 0.00 0.00 46 1015.0
20260905170707 93 250 3.5 7.8 0.00 0.00 0.00 46 1015.0
20260905170515 93 92 1.7 7.8 0.00 0.00 0.00 46 1015.0
20260905170301 93 133 2.6 8.7 0.00 0.00 0.00 46 1015.0
20260905170110 94 210 4.3 8.7 0.00 0.00 0.00 45 1015.0
20260905165902 94 259 3.5 8.7 0.00 0.00 0.00 45 1015.0
20260905165704 94 210 2.6 8.7 0.00 0.00 0.00 45 1014.9
20260905165507 94 235 3.5 8.7 0.00 0.00 0.00 45 1014.9
20260905165307 94 154 3.5 8.7 0.00 0.00 0.00 44 1014.9
20260905164922 95 231 1.7 7.8 0.00 0.00 0.00 44 1014.8
20260905164706 96 154 3.5 7.8 0.00 0.00 0.00 43 1014.9
20260905164503 96 137 3.5 7.8 0.00 0.00 0.00 43 1014.8
20260905164305 96 213 1.7 7.8 0.00 0.00 0.00 42 1014.8
20260905164105 96 90 2.6 6.1 0.00 0.00 0.00 41 1014.8
20260905163908 97 128 1.7 6.1 0.00 0.00 0.00 40 1014.8
20260905163702 97 69 1.7 6.1 0.00 0.00 0.00 38 1014.7
20260905163504 97 125 1.7 3.5 0.00 0.00 0.00 35 1014.8
20260905163304 97 134 0.0 1.7 0.00 0.00 0.00 35 1014.8
20260905163102 97 0 0.0 2.6 0.00 0.00 0.00 35 1014.8
20260905162910 97 0 0.0 2.6 0.00 0.00 0.00 36 1014.7
20260905162707 97 0 0.0 2.6 0.00 0.00 0.00 36 1014.6
20260905162503 96 0 0.0 3.5 0.00 0.00 0.00 35 1014.6
20260905162305 96 0 0.9 3.5 0.00 0.00 0.00 36 1014.6
20260905162103 96 0 1.7 3.5 0.00 0.00 0.00 36 1014.6
20260905161858 96 343 1.7 3.5 0.00 0.00 0.00 36 1014.7
20260905161658 96 4 1.7 3.5 0.00 0.00 0.00 36 1014.6
20260905161456 96 4 1.7 3.5 0.00 0.00 0.00 36 1014.6
20260905161252 96 348 1.7 5.2 0.00 0.00 0.00 36 1014.7
20260905161053 96 340 0.9 6.1 0.00 0.00 0.00 36 1014.6
20260905160857 96 333 1.7 6.1 0.00 0.00 0.00 35 1014.6
20260905160651 96 329 2.6 6.1 0.00 0.00 0.00 35 1014.5
20260905160451 96 1 3.5 6.1 0.00 0.00 0.00 35 1014.6
20260905160250 96 269 1.7 6.1 0.00 0.00 0.00 36 1014.6
20260905160118 96 289 0.9 6.1 0.00 0.00 0.00 36 1014.5
20260905155847 96 319 1.7 6.1 0.00 0.00 0.00 35 1014.5
20260905155646 96 228 0.9 6.1 0.00 0.00 0.00 35 1014.6
20260905155447 96 290 1.7 6.1 0.00 0.00 0.00 35 1014.6
20260905155249 96 282 3.5 6.1 0.00 0.00 0.00 35 1014.6
20260905155049 96 309 2.6 6.1 0.00 0.00 0.00 35 1014.6
20260905154846 96 316 0.9 8.7 0.00 0.00 0.00 35 1014.6
20260905154645 96 0 2.6 8.7 0.00 0.00 0.00 35 1014.6
20260905154445 96 0 1.7 8.7 0.00 0.00 0.00 35 1014.5
20260905154244 97 7 2.6 8.7 0.00 0.00 0.00 35 1014.5
20260905154046 97 24 4.3 8.7 0.00 0.00 0.00 35 1014.5
20260905153845 97 345 0.9 6.1 0.00 0.00 0.00 35 1014.5
20260905153646 97 227 1.7 7.8 0.00 0.00 0.00 35 1014.5
20260905153451 97 357 3.5 7.8 0.00 0.00 0.00 35 1014.6
20260905153249 97 293 1.7 7.8 0.00 0.00 0.00 35 1014.5
20260905153051 97 296 1.7 7.8 0.00 0.00 0.00 35 1014.5
20260905152844 97 8 4.3 7.8 0.00 0.00 0.00 35 1014.5
20260905152645 97 331 0.9 4.3 0.00 0.00 0.00 35 1014.5
20260905152444 97 27 0.0 5.2 0.00 0.00 0.00 35 1014.5
20260905152244 96 30 1.7 5.2 0.00 0.00 0.00 35 1014.4
20260905152048 97 0 2.6 6.1 0.00 0.00 0.00 35 1014.4
20260905151845 97 358 1.7 6.1 0.00 0.00 0.00 35 1014.4
20260905151642 97 313 2.6 6.1 0.00 0.00 0.00 35 1014.4
20260905151442 97 65 1.7 6.1 0.00 0.00 0.00 35 1014.5
20260905151246 97 293 4.3 6.1 0.00 0.00 0.00 35 1014.4
20260905151045 97 243 1.7 6.1 0.00 0.00 0.00 35 1014.5
20260905150844 97 326 0.9 6.1 0.00 0.00 0.00 35 1014.5
20260905150642 97 285 1.7 6.1 0.00 0.00 0.00 35 1014.5
20260905150441 97 251 3.5 6.1 0.00 0.00 0.00 34 1014.5
20260905150241 97 298 1.7 6.1 0.00 0.00 0.00 35 1014.4
20260905150048 97 0 2.6 6.1 0.00 0.00 0.00 35 1014.5
20260905145839 97 314 1.7 6.1 0.00 0.00 0.00 35 1014.4
20260905145639 97 285 3.5 6.1 0.00 0.00 0.00 35 1014.4
20260905145438 97 326 2.6 6.1 0.00 0.00 0.00 35 1014.5
20260905145237 97 314 3.5 6.1 0.00 0.00 0.00 35 1014.5
20260905145035 97 345 1.7 6.1 0.00 0.00 0.00 35 1014.6
20260905144844 97 310 3.5 6.1 0.00 0.00 0.00 35 1014.5
20260905144639 97 275 1.7 5.2 0.00 0.00 0.00 35 1014.7
20260905144438 97 330 1.7 5.2 0.00 0.00 0.00 35 1014.6
20260905144239 96 333 0.0 5.2 0.00 0.00 0.00 35 1014.6
20260905144035 96 333 0.9 5.2 0.00 0.00 0.00 35 1014.6
20260905143835 96 333 1.7 7.8 0.00 0.00 0.00 35 1014.6
20260905143632 96 306 2.6 7.8 0.00 0.00 0.00 35 1014.6
20260905143432 96 313 0.9 7.8 0.00 0.00 0.00 35 1014.7
20260905143230 96 282 1.7 7.8 0.00 0.00 0.00 35 1014.7
20260905143032 96 298 2.6 7.8 0.00 0.00 0.00 35 1014.7
20260905142831 96 341 3.5 7.8 0.00 0.00 0.00 35 1014.7
20260905142630 96 351 3.5 6.1 0.00 0.00 0.00 35 1014.8
20260905142430 96 292 2.6 6.1 0.00 0.00 0.00 35 1014.8
20260905142216 96 23 0.9 8.7 0.00 0.00 0.00 35 1014.7
20260905142020 96 27 0.9 8.7 0.00 0.00 0.00 35 1014.8
20260905141817 96 257 1.7 8.7 0.00 0.00 0.00 35 1014.8
20260905141613 96 309 1.7 8.7 0.00 0.00 0.00 35 1014.8
20260905141409 96 285 4.3 8.7 0.00 0.00 0.00 35 1014.9
20260905141208 96 0 4.3 7.8 0.00 0.00 0.00 35 1014.8
20260905141018 96 0 2.6 6.1 0.00 0.00 0.00 35 1014.8
20260905140807 96 8 4.3 6.1 0.00 0.00 0.00 35 1014.8
20260905140608 96 13 1.7 6.1 0.00 0.00 0.00 35 1014.8
20260905140408 96 320 0.9 6.1 0.00 0.00 0.00 35 1014.8
20260905140207 96 306 3.5 6.1 0.00 0.00 0.00 35 1014.9
20260905140038 96 123 1.7 4.3 0.00 0.00 0.00 35 1014.9
20260905135810 96 0 0.0 3.5 0.00 0.00 0.00 35 1014.9
20260905135605 96 0 0.9 5.2 0.00 0.00 0.00 35 1014.9
20260905135403 96 16 0.9 6.1 0.00 0.00 0.00 35 1014.9
20260905135210 96 321 0.9 6.1 0.00 0.00 0.00 35 1014.9
20260905135017 96 306 0.9 6.1 0.00 0.00 0.00 35 1015.0
20260905134804 96 333 1.7 6.1 0.00 0.00 0.00 35 1015.0
20260905134602 96 282 3.5 6.1 0.00 0.00 0.00 35 1015.0
20260905134407 96 290 1.7 7.8 0.00 0.00 0.00 35 1015.0
20260905134218 96 358 1.7 7.8 0.00 0.00 0.00 36 1014.9
20260905134015 95 7 1.7 7.8 0.00 0.00 0.00 36 1015.0
20260905133811 95 1 1.7 7.8 0.00 0.00 0.00 35 1015.1
20260905133604 95 307 4.3 7.8 0.00 0.00 0.00 35 1015.1
20260905133400 96 300 3.5 7.8 0.00 0.00 0.00 35 1015.1
20260905133203 95 298 0.9 8.7 0.00 0.00 0.00 35 1015.1
20260905132959 95 313 1.7 8.7 0.00 0.00 0.00 36 1015.2
20260905132801 95 264 3.5 8.7 0.00 0.00 0.00 36 1015.2
20260905132558 95 49 5.2 8.7 0.00 0.00 0.00 35 1015.3
20260905132357 95 190 4.3 8.7 0.00 0.00 0.00 35 1015.3
20260905132159 95 353 2.6 7.8 0.00 0.00 0.00 35 1015.3
20260905131956 95 247 0.0 7.8 0.00 0.00 0.00 35 1015.3
20260905131757 95 289 3.5 7.8 0.00 0.00 0.00 35 1015.3
20260905131557 95 348 2.6 6.1 0.00 0.00 0.00 35 1015.3
20260905131355 95 323 2.6 5.2 0.00 0.00 0.00 35 1015.4
20260905131155 95 341 1.7 5.2 0.00 0.00 0.00 35 1015.4
20260905130955 95 62 1.7 5.2 0.00 0.00 0.00 35 1015.3
20260905130754 95 350 2.6 5.2 0.00 0.00 0.00 35 1015.4
20260905130549 95 299 2.6 5.2 0.00 0.00 0.00 35 1015.4
20260905130348 95 345 1.7 8.7 0.00 0.00 0.00 35 1015.5
20260905130149 95 20 0.0 8.7 0.00 0.00 0.00 35 1015.4
20260905125950 95 47 0.9 8.7 0.00 0.00 0.00 35 1015.5
20260905125751 95 20 2.6 8.7 0.00 0.00 0.00 35 1015.4
20260905125547 95 0 3.5 8.7 0.00 0.00 0.00 35 1015.5
20260905125349 95 357 0.9 8.7 0.00 0.00 0.00 35 1015.5
20260905125154 94 354 0.0 9.6 0.00 0.00 0.00 35 1015.6
20260905124955 94 189 1.7 10.4 0.00 0.00 0.00 35 1015.6
20260905124756 94 296 1.7 10.4 0.00 0.00 0.00 35 1015.6
20260905124547 94 18 5.2 10.4 0.00 0.00 0.00 35 1015.6
20260905124345 94 0 6.1 10.4 0.00 0.00 0.00 35 1015.7
20260905124150 94 3 2.6 10.4 0.00 0.00 0.00 35 1015.7
20260905123944 94 0 1.7 7.8 0.00 0.00 0.00 35 1015.6
20260905123750 94 83 0.0 7.8 0.00 0.00 0.00 35 1015.7
20260905123547 93 310 2.6 7.8 0.00 0.00 0.00 36 1015.8
20260905123343 93 0 2.6 7.8 0.00 0.00 0.00 36 1015.7
20260905123144 93 289 3.5 7.8 0.00 0.00 0.00 36 1015.8
20260905122945 93 320 2.6 8.7 0.00 0.00 0.00 35 1015.7
20260905122749 93 355 3.5 8.7 0.00 0.00 0.00 36 1015.8
20260905122547 93 289 3.5 10.4 0.00 0.00 0.00 36 1015.8
20260905122343 93 312 4.3 10.4 0.00 0.00 0.00 35 1015.8
20260905122143 93 4 3.5 10.4 0.00 0.00 0.00 35 1016.0
20260905121944 92 275 0.9 10.4 0.00 0.00 0.00 35 1015.9
20260905121751 92 295 6.1 10.4 0.00 0.00 0.00 35 1015.9
20260905121549 92 323 4.3 9.6 0.00 0.00 0.00 35 1016.0
20260905121343 92 358 2.6 9.6 0.00 0.00 0.00 36 1015.9
20260905121144 92 286 3.5 9.6 0.00 0.00 0.00 35 1016.0
20260905120952 92 261 5.2 9.6 0.00 0.00 0.00 35 1016.0
20260905120753 93 298 5.2 10.4 0.00 0.00 0.00 35 1016.0
20260905120551 93 0 5.2 10.4 0.00 0.00 0.00 35 1016.1
20260905120346 93 0 5.2 10.4 0.00 0.00 0.00 35 1016.1
20260905120143 93 351 6.1 10.4 0.00 0.00 0.00 35 1016.0
20260905115945 93 0 7.0 10.4 0.00 0.00 0.00 35 1016.0
20260905115746 92 0 1.7 7.8 0.00 0.00 0.00 35 1016.0
20260905115547 92 276 2.6 9.6 0.00 0.00 0.00 35 1016.1
20260905115344 92 329 2.6 9.6 0.00 0.00 0.00 36 1016.1
20260905115144 92 278 1.7 9.6 0.00 0.00 0.00 35 1016.1
20260905114944 92 269 3.5 9.6 0.00 0.00 0.00 35 1016.2
20260905114746 92 17 5.2 9.6 0.00 0.00 0.00 34 1016.1
20260905114547 92 343 4.3 9.6 0.00 0.00 0.00 35 1016.2
20260905114345 92 276 1.7 8.7 0.00 0.00 0.00 35 1016.2
20260905114145 92 255 3.5 10.4 0.00 0.00 0.00 35 1016.2
20260905113943 92 18 3.5 10.4 0.00 0.00 0.00 35 1016.1
20260905113746 92 59 2.6 10.4 0.00 0.00 0.00 35 1016.1
20260905113547 91 357 3.5 10.4 0.00 0.00 0.00 35 1016.1
20260905113347 92 0 5.2 10.4 0.00 0.00 0.00 35 1016.1
20260905113147 92 0 6.1 9.6 0.00 0.00 0.00 34 1016.1
20260905112948 92 345 3.5 9.6 0.00 0.00 0.00 34 1016.1
20260905112752 91 0 4.3 9.6 0.00 0.00 0.00 34 1016.1
20260905112551 91 10 5.2 9.6 0.00 0.00 0.00 34 1016.1
20260905112345 91 358 4.3 6.1 0.00 0.00 0.00 33 1016.0
20260905112145 91 0 0.9 8.7 0.00 0.00 0.00 34 1016.0
20260905111944 91 319 2.6 8.7 0.00 0.00 0.00 34 1016.1
20260905111747 91 3 3.5 8.7 0.00 0.00 0.00 33 1016.1
20260905111552 91 343 0.9 8.7 0.00 0.00 0.00 34 1016.2
20260905111344 91 0 3.5 8.7 0.00 0.00 0.00 34 1016.3
20260905111146 91 357 4.3 7.8 0.00 0.00 0.00 34 1016.2
20260905110943 91 337 5.2 7.8 0.00 0.00 0.00 35 1016.2
20260905110746 91 0 1.7 6.1 0.00 0.00 0.00 35 1016.3
20260905110548 91 353 3.5 6.1 0.00 0.00 0.00 34 1016.3
20260905110343 91 0 3.5 6.1 0.00 0.00 0.00 35 1016.3